Location: Unspecified
(48.2082°N, 0.0000°E)
Time: 04:14:30
(UTC+00:00)

Tiros 1 despin weight - Pass Details

Date: 23 June 2019
Orbit: 594 x 643 km, 48.2° (Epoch: 22 July)

Event Time Altitude Azimuth Distance (km) Brightness Sun altitude
Rises 01:41:06 0° 270° (W) 2,839 ? -15.0°
Reaches altitude 10° 01:43:24 10° 270° (W) 1,932 ? -14.8°
Maximum altitude 01:47:50 89° 359° (N) 600 ? -14.5°
Drops below altitude 10° 01:52:15 10° 91° (E) 1,926 ? -14.2°
Sets 01:54:32 0° 92° (E) 2,829 ? -14.1°
